User: anonymous   Login
Location: Unspecified
(0.0000°N, 0.0000°E)
Time: 09:37:45
(UTC+00:00)
Language:

Tiros 9 - Orbit

View from above orbital plane
View from above orbital plane
View from above satellite
View from above satellite

Ground track
Ground track

The orbit data is extracted from the following two-line orbital elements,

1 00978U 65004A   17296.13316162  .00000180  00000-0  24229-3 0  9998
2 00978  96.3897 135.8891 1159405  23.5919 341.4192 12.10871474329662
Epoch (UTC): 23 October 2017 03:11:45
Eccentricity: 0.1159405
inclination: 96.3897°
perigee height: 704 km
apogee height: 2561 km
right ascension of ascending node: 135.8891°
argument of perigee: 23.5919°
revolutions per day: 12.10871474
mean anomaly at epoch: 341.4192°
orbit number at epoch: 32966

The dashed part of the orbit path shows where the satellite is in the earth's shadow,  

DLR